Time,TemperatureF,DewpointF,PressureIn,WindDirection,WindDirectionDegrees,WindSpeedMPH,WindSpeedGustMPH,Humidity,HourlyPrecipIn,Conditions,Clouds,dailyrainin,SoftwareType,DateUTC
2013-09-03 00:05:00,29.3,-99.9,29.72,South,180,5.0,8.0,-999,0.00,,,0.00,weatherlink.com 1.10,2013-09-03 04:05:00,
2013-09-03 00:20:00,30.7,-99.9,29.71,South,180,4.0,6.0,-999,0.00,,,0.00,weatherlink.com 1.10,2013-09-03 04:20:00,
2013-09-03 00:35:00,29.4,-99.9,29.72,South,180,0.0,5.0,-999,0.00,,,0.00,weatherlink.com 1.10,2013-09-03 04:35:00,
2013-09-03 00:50:00,30.7,-99.9,29.71,SSW,204,6.0,11.0,-999,0.00,,,0.00,weatherlink.com 1.10,2013-09-03 04:50:00,
2013-09-03 01:05:00,29.5,-99.9,29.71,SW,219,8.0,12.0,-999,0.00,,,0.00,weatherlink.com 1.10,2013-09-03 05:05:00,
2013-09-03 01:20:00,29.8,-99.9,29.71,SW,221,7.0,10.0,-999,0.00,,,0.00,weatherlink.com 1.10,2013-09-03 05:20:00,
2013-09-03 01:35:00,30.9,-99.9,29.71,SW,221,6.0,10.0,-999,0.00,,,0.00,weatherlink.com 1.10,2013-09-03 05:35:00,
2013-09-03 01:51:00,30.4,-99.9,29.70,SW,221,8.0,10.0,-999,0.00,,,0.00,weatherlink.com 1.10,2013-09-03 05:51:00,
2013-09-03 02:06:00,30.6,-99.9,29.70,SW,222,8.0,10.0,-999,0.00,,,0.00,weatherlink.com 1.10,2013-09-03 06:06:00,
2013-09-03 02:21:00,31.3,-99.9,29.70,SW,224,7.0,9.0,-999,0.00,,,0.00,weatherlink.com 1.10,2013-09-03 06:21:00,
2013-09-03 02:36:00,31.0,-99.9,29.70,SW,223,1.0,9.0,-999,0.00,,,0.00,weatherlink.com 1.10,2013-09-03 06:36:00,
2013-09-03 02:51:00,30.6,-99.9,29.69,SW,223,2.0,5.0,-999,0.00,,,0.00,weatherlink.com 1.10,2013-09-03 06:51:00,
2013-09-03 03:06:00,31.3,-99.9,29.69,SW,224,3.0,7.0,-999,0.00,,,0.00,weatherlink.com 1.10,2013-09-03 07:06:00,
2013-09-03 03:21:00,30.6,-99.9,29.69,SW,224,2.0,4.0,-999,0.00,,,0.00,weatherlink.com 1.10,2013-09-03 07:21:00,
2013-09-03 03:36:00,30.6,-99.9,29.69,SW,223,0.0,2.0,-999,0.00,,,0.00,weatherlink.com 1.10,2013-09-03 07:36:00,
2013-09-03 03:51:00,31.5,-99.9,29.70,SW,223,1.0,5.0,-999,0.00,,,0.00,weatherlink.com 1.10,2013-09-03 07:51:00,
2013-09-03 04:06:00,30.1,-99.9,29.70,SW,224,1.0,3.0,-999,0.00,,,0.00,weatherlink.com 1.10,2013-09-03 08:06:00,
2013-09-03 04:21:00,30.6,-99.9,29.70,SW,223,1.0,5.0,-999,0.00,,,0.00,weatherlink.com 1.10,2013-09-03 08:21:00,
2013-09-03 04:36:00,30.1,-99.9,29.70,SW,223,1.0,4.0,-999,0.00,,,0.00,weatherlink.com 1.10,2013-09-03 08:36:00,
2013-09-03 04:51:00,30.3,-99.9,29.70,SW,224,0.0,3.0,-999,0.00,,,0.00,weatherlink.com 1.10,2013-09-03 08:51:00,
2013-09-03 05:07:00,30.4,-99.9,29.70,SW,224,0.0,0.0,-999,0.00,,,0.00,weatherlink.com 1.10,2013-09-03 09:07:00,
2013-09-03 05:22:00,29.3,-99.9,29.70,SW,223,3.0,4.0,-999,0.00,,,0.00,weatherlink.com 1.10,2013-09-03 09:22:00,
2013-09-03 05:37:00,29.3,-99.9,29.70,SW,224,3.0,5.0,-999,0.00,,,0.00,weatherlink.com 1.10,2013-09-03 09:37:00,
2013-09-03 05:52:00,31.0,-99.9,29.71,SW,223,6.0,6.0,-999,0.00,,,0.00,weatherlink.com 1.10,2013-09-03 09:52:00,
2013-09-03 06:07:00,29.4,-99.9,29.70,SW,223,5.0,8.0,-999,0.00,,,0.00,weatherlink.com 1.10,2013-09-03 10:07:00,
2013-09-03 06:22:00,28.5,-99.9,29.71,SW,223,4.0,7.0,-999,0.00,,,0.00,weatherlink.com 1.10,2013-09-03 10:22:00,
2013-09-03 06:37:00,30.4,-99.9,29.71,SW,223,6.0,8.0,-999,0.00,,,0.00,weatherlink.com 1.10,2013-09-03 10:37:00,
2013-09-03 06:52:00,29.7,-99.9,29.72,SW,223,4.0,8.0,-999,0.00,,,0.00,weatherlink.com 1.10,2013-09-03 10:52:00,
2013-09-03 07:07:00,30.7,-99.9,29.72,SW,223,4.0,9.0,-999,0.00,,,0.00,weatherlink.com 1.10,2013-09-03 11:07:00,
2013-09-03 07:22:00,33.5,-99.9,29.73,SW,223,7.0,10.0,-999,0.00,,,0.00,weatherlink.com 1.10,2013-09-03 11:22:00,
2013-09-03 07:37:00,32.5,-99.9,29.73,SW,223,2.0,9.0,-999,0.00,,,0.00,weatherlink.com 1.10,2013-09-03 11:37:00,
2013-09-03 07:52:00,32.5,-99.9,29.73,SW,224,2.0,6.0,-999,0.00,,,0.00,weatherlink.com 1.10,2013-09-03 11:52:00,
2013-09-03 08:07:00,34.3,-99.9,29.72,SW,224,5.0,10.0,-999,0.00,,,0.00,weatherlink.com 1.10,2013-09-03 12:07:00,
2013-09-03 08:22:00,32.4,-99.9,29.73,SW,224,9.0,11.0,-999,0.00,,,0.00,weatherlink.com 1.10,2013-09-03 12:22:00,
2013-09-03 08:38:00,32.8,-99.9,29.73,SW,224,6.0,12.0,-999,0.00,,,0.00,weatherlink.com 1.10,2013-09-03 12:38:00,
2013-09-03 08:53:00,35.2,-99.9,29.73,SW,224,6.0,11.0,-999,0.00,,,0.00,weatherlink.com 1.10,2013-09-03 12:53:00,
2013-09-03 09:08:00,34.7,-99.9,29.73,West,265,7.0,13.0,-999,0.00,,,0.00,weatherlink.com 1.10,2013-09-03 13:08:00,
2013-09-03 09:23:00,35.5,-99.9,29.73,WNW,289,12.0,13.0,-999,0.00,,,0.00,weatherlink.com 1.10,2013-09-03 13:23:00,
2013-09-03 09:38:00,36.2,-99.9,29.74,West,272,8.0,11.0,-999,0.00,,,0.00,weatherlink.com 1.10,2013-09-03 13:38:00,
2013-09-03 09:53:00,34.1,-99.9,29.74,WNW,286,8.0,11.0,-999,0.00,,,0.00,weatherlink.com 1.10,2013-09-03 13:53:00,
2013-09-03 10:08:00,34.4,-99.9,29.74,WNW,296,12.0,13.0,-999,0.00,,,0.00,weatherlink.com 1.10,2013-09-03 14:08:00,
2013-09-03 10:23:00,33.1,-99.9,29.75,WNW,282,10.0,13.0,-999,0.00,,,0.00,weatherlink.com 1.10,2013-09-03 14:23:00,
2013-09-03 10:38:00,32.5,-99.9,29.75,WNW,294,7.0,12.0,-999,0.00,,,0.00,weatherlink.com 1.10,2013-09-03 14:38:00,
2013-09-03 10:53:00,33.5,-99.9,29.75,NW,304,8.0,11.0,-999,0.00,,,0.00,weatherlink.com 1.10,2013-09-03 14:53:00,
2013-09-03 11:08:00,33.4,-99.9,29.75,NW,304,3.0,11.0,-999,0.00,,,0.00,weatherlink.com 1.10,2013-09-03 15:08:00,
2013-09-03 11:23:00,31.9,-99.9,29.75,NW,306,5.0,9.0,-999,0.00,,,0.00,weatherlink.com 1.10,2013-09-03 15:23:00,
2013-09-03 11:38:00,32.2,-99.9,29.75,NW,306,4.0,10.0,-999,0.00,,,0.00,weatherlink.com 1.10,2013-09-03 15:38:00,
2013-09-03 11:53:00,30.7,-99.9,29.75,NW,306,9.0,9.0,-999,0.00,,,0.00,weatherlink.com 1.10,2013-09-03 15:53:00,
2013-09-03 12:09:00,30.3,-99.9,29.75,NW,313,5.0,10.0,-999,0.00,,,0.00,weatherlink.com 1.10,2013-09-03 16:09:00,
2013-09-03 12:24:00,31.0,-99.9,29.75,NW,306,5.0,7.0,-999,0.00,,,0.00,weatherlink.com 1.10,2013-09-03 16:24:00,
2013-09-03 12:39:00,29.0,-99.9,29.75,NW,306,1.0,8.0,-999,0.00,,,0.00,weatherlink.com 1.10,2013-09-03 16:39:00,
2013-09-03 12:54:00,28.5,-99.9,29.75,NW,306,5.0,10.0,-999,0.00,,,0.00,weatherlink.com 1.10,2013-09-03 16:54:00,
2013-09-03 13:09:00,29.5,-99.9,29.75,WNW,291,5.0,13.0,-999,0.00,,,0.00,weatherlink.com 1.10,2013-09-03 17:09:00,
2013-09-03 13:24:00,28.1,-99.9,29.75,WNW,290,4.0,8.0,-999,0.00,,,0.00,weatherlink.com 1.10,2013-09-03 17:24:00,
2013-09-03 13:39:00,27.3,-99.9,29.75,WNW,296,0.0,10.0,-999,0.00,,,0.00,weatherlink.com 1.10,2013-09-03 17:39:00,
2013-09-03 13:54:00,29.1,-99.9,29.75,NNE,18,5.0,8.0,-999,0.00,,,0.00,weatherlink.com 1.10,2013-09-03 17:54:00,
2013-09-03 14:09:00,26.6,-99.9,29.75,NE,46,1.0,9.0,-999,0.00,,,0.00,weatherlink.com 1.10,2013-09-03 18:09:00,
2013-09-03 14:24:00,27.5,-99.9,29.74,NE,49,0.0,6.0,-999,0.00,,,0.00,weatherlink.com 1.10,2013-09-03 18:24:00,
2013-09-03 14:39:00,27.0,-99.9,29.74,NW,307,8.0,11.0,-999,0.00,,,0.00,weatherlink.com 1.10,2013-09-03 18:39:00,
2013-09-03 14:54:00,27.3,-99.9,29.73,WNW,286,15.0,17.0,-999,0.00,,,0.00,weatherlink.com 1.10,2013-09-03 18:54:00,
2013-09-03 15:09:00,27.6,-99.9,29.73,WNW,299,11.0,15.0,-999,0.00,,,0.00,weatherlink.com 1.10,2013-09-03 19:09:00,
2013-09-03 15:25:00,26.3,-99.9,29.73,WNW,292,10.0,17.0,-999,0.00,,,0.00,weatherlink.com 1.10,2013-09-03 19:25:00,
2013-09-03 15:40:00,26.1,-99.9,29.73,NW,309,7.0,14.0,-999,0.00,,,0.00,weatherlink.com 1.10,2013-09-03 19:40:00,
2013-09-03 15:55:00,26.9,-99.9,29.73,WNW,288,12.0,17.0,-999,0.00,,,0.00,weatherlink.com 1.10,2013-09-03 19:55:00,
2013-09-03 16:10:00,26.3,-99.9,29.73,WNW,297,11.0,15.0,-999,0.00,,,0.00,weatherlink.com 1.10,2013-09-03 20:10:00,
2013-09-03 16:25:00,23.6,-99.9,29.74,WNW,286,16.0,17.0,-999,0.00,,,0.00,weatherlink.com 1.10,2013-09-03 20:25:00,
2013-09-03 16:40:00,24.2,-99.9,29.74,WNW,300,16.0,17.0,-999,0.00,,,0.00,weatherlink.com 1.10,2013-09-03 20:40:00,
2013-09-03 16:55:00,22.5,-99.9,29.74,West,280,13.0,17.0,-999,0.00,,,0.00,weatherlink.com 1.10,2013-09-03 20:55:00,
2013-09-03 17:10:00,22.1,-99.9,29.75,WNW,292,17.0,19.0,-999,0.00,,,0.00,weatherlink.com 1.10,2013-09-03 21:10:00,
2013-09-03 17:25:00,23.2,-99.9,29.74,WNW,300,9.0,17.0,-999,0.00,,,0.00,weatherlink.com 1.10,2013-09-03 21:25:00,
2013-09-03 17:40:00,21.4,-99.9,29.75,WNW,289,17.0,17.0,-999,0.00,,,0.00,weatherlink.com 1.10,2013-09-03 21:40:00,
2013-09-03 17:55:00,21.4,-99.9,29.75,WNW,298,12.0,15.0,-999,0.00,,,0.00,weatherlink.com 1.10,2013-09-03 21:55:00,
2013-09-03 18:10:00,21.4,-7.0,29.75,WNW,298,11.0,14.0,28,0.00,,,0.00,weatherlink.com 1.10,2013-09-03 22:10:00,
2013-09-03 18:25:00,21.1,-7.0,29.76,WNW,299,14.0,17.0,28,0.00,,,0.00,weatherlink.com 1.10,2013-09-03 22:25:00,
2013-09-03 18:40:00,21.3,-7.0,29.77,WNW,293,12.0,17.0,28,0.00,,,0.00,weatherlink.com 1.10,2013-09-03 22:40:00,
2013-09-03 18:56:00,19.2,-9.0,29.77,WNW,301,7.0,16.0,28,0.00,,,0.00,weatherlink.com 1.10,2013-09-03 22:56:00,
2013-09-03 19:11:00,17.8,-99.9,29.77,WNW,299,9.0,19.0,-999,0.00,,,0.00,weatherlink.com 1.10,2013-09-03 23:11:00,
2013-09-03 19:26:00,18.3,-99.9,29.78,WNW,296,9.0,12.0,-999,0.00,,,0.00,weatherlink.com 1.10,2013-09-03 23:26:00,
2013-09-03 19:41:00,16.5,-11.0,29.78,WNW,292,6.0,13.0,28,0.00,,,0.00,weatherlink.com 1.10,2013-09-03 23:41:00,
2013-09-03 19:56:00,16.1,-99.9,29.79,WNW,292,7.0,10.0,-999,0.00,,,0.00,weatherlink.com 1.10,2013-09-03 23:56:00,
2013-09-03 20:11:00,17.0,-99.9,29.80,WNW,292,5.0,9.0,-999,0.00,,,0.00,weatherlink.com 1.10,2013-09-04 00:11:00,
2013-09-03 20:26:00,15.4,-99.9,29.80,WNW,291,9.0,9.0,-999,0.00,,,0.00,weatherlink.com 1.10,2013-09-04 00:26:00,
2013-09-03 20:41:00,15.7,-99.9,29.81,WNW,285,10.0,11.0,-999,0.00,,,0.00,weatherlink.com 1.10,2013-09-04 00:41:00,
2013-09-03 20:56:00,16.7,-99.9,29.82,West,279,8.0,12.0,-999,0.00,,,0.00,weatherlink.com 1.10,2013-09-04 00:56:00,
2013-09-03 21:11:00,15.1,-99.9,29.82,WNW,286,8.0,12.0,-999,0.00,,,0.00,weatherlink.com 1.10,2013-09-04 01:11:00,
2013-09-03 21:26:00,14.4,-99.9,29.83,WNW,292,8.0,13.0,-999,0.00,,,0.00,weatherlink.com 1.10,2013-09-04 01:26:00,
2013-09-03 21:41:00,14.3,-99.9,29.84,WNW,292,7.0,12.0,-999,0.00,,,0.00,weatherlink.com 1.10,2013-09-04 01:41:00,
2013-09-03 21:56:00,12.9,-99.9,29.84,WNW,292,9.0,11.0,-999,0.00,,,0.00,weatherlink.com 1.10,2013-09-04 01:56:00,
2013-09-03 22:11:00,12.4,-99.9,29.84,WNW,295,9.0,11.0,-999,0.00,,,0.00,weatherlink.com 1.10,2013-09-04 02:11:00,
2013-09-03 22:27:00,12.3,-99.9,29.84,WNW,298,8.0,12.0,-999,0.00,,,0.00,weatherlink.com 1.10,2013-09-04 02:27:00,
2013-09-03 22:42:00,11.1,-99.9,29.85,WNW,298,9.0,12.0,-999,0.00,,,0.00,weatherlink.com 1.10,2013-09-04 02:42:00,
2013-09-03 22:57:00,10.7,-99.9,29.85,WNW,298,9.0,13.0,-999,0.00,,,0.00,weatherlink.com 1.10,2013-09-04 02:57:00,
2013-09-03 23:12:00,9.9,-99.9,29.85,WNW,298,6.0,10.0,-999,0.00,,,0.00,weatherlink.com 1.10,2013-09-04 03:12:00,
2013-09-03 23:27:00,9.0,-99.9,29.85,WNW,300,9.0,13.0,-999,0.00,,,0.00,weatherlink.com 1.10,2013-09-04 03:27:00,
2013-09-03 23:42:00,8.6,-99.9,29.85,WNW,297,10.0,11.0,-999,0.00,,,0.00,weatherlink.com 1.10,2013-09-04 03:42:00,
2013-09-03 23:57:00,7.7,-99.9,29.86,WNW,295,11.0,12.0,-999,0.00,,,0.00,weatherlink.com 1.10,2013-09-04 03:57:00,